Volver al catálogo

USA 200

ActivoMilitarHEO
NORAD 32706·PAYLOAD·🇺🇸 United States

Lanzado Mar 13, 2008 desde Vandenberg Space Force Base

Loading…

Próximos Pases (próximas 24 horas)

TLE

ActualizadoSource: Mike McCants

Época: Sep 14, 2026, 21:41 UTC

1 32706U 08010A   26257.90368145  .00000228  00000-0  00000-0 0    00
2 32706  63.4470 301.9510 7144328 268.9662  16.1203  2.00636144  5296

Sigue USA 200 en tiempo real con AllMySat

Download on the App Store